This is the latest recevied weather packets stored in our database for station/object CT1ETE-13. If no packets are shown the sender has not sent any weather packets the latest 10 day(s).
| Time | Temp. | Humidity | Pressure | Rain* | Wind** | Luminosity | Snow |
|---|---|---|---|---|---|---|---|
| 1778207131 | 10.56° C | 86% | 1008.3 hPa | 0 mm | - | - | - |
| 1778206213 | 11.11° C | 85% | 1008.4 hPa | 0 mm | - | - | - |
| 1778205253 | 11.11° C | 86% | 1008.5 hPa | 0 mm | - | - | - |
| 1778204351 | 10.56° C | 86% | 1008.7 hPa | 0 mm | - | - | - |
| 1778203451 | 11.11° C | 86% | 1009 hPa | 0 mm | - | - | - |
| 1778202549 | 11.11° C | 86% | 1009.2 hPa | 0 mm | - | - | - |
| 1778201647 | 11.11° C | 86% | 1009.3 hPa | 0 mm | - | - | - |
| 1778200805 | 11.11° C | 85% | 1009.3 hPa | 0 mm | - | - | - |
| 1778199845 | 11.67° C | 85% | 1009.3 hPa | 0 mm | - | - | - |
| 1778198945 | 11.67° C | 85% | 1009.5 hPa | 0 mm | - | - | - |
| 1778198106 | 11.67° C | 85% | 1009.6 hPa | 0 mm | - | - | - |
| 1778197143 | 11.67° C | 85% | 1009.7 hPa | 0 mm | - | - | - |
| 1778196241 | 11.67° C | 85% | 1009.8 hPa | 0 mm | - | - | - |
| 1778195341 | 11.67° C | 84% | 1009.8 hPa | 0 mm | - | - | - |
| 1778194441 | 11.67° C | 84% | 1010.1 hPa | 0 mm | - | - | - |
| 1778193603 | 11.67° C | 84% | 1010.2 hPa | 0 mm | - | - | - |
| 1778192635 | 11.67° C | 84% | 1010.3 hPa | 0 mm | - | - | - |
| 1778191733 | 11.67° C | 83% | 1010.4 hPa | 0 mm | - | - | - |
| 1778190833 | 11.67° C | 84% | 1010.6 hPa | 0 mm | - | - | - |
| 1778189934 | 11.67° C | 84% | 1010.6 hPa | 0 mm | - | - | - |
| 1778189031 | 11.67° C | 84% | 1010.7 hPa | 0 mm | - | - | - |
| 1778188189 | 11.67° C | 83% | 1010.7 hPa | 0 mm | - | - | - |
| 1778187227 | 12.22° C | 83% | 1010.6 hPa | 0 mm | - | - | - |
| 1778186327 | 12.22° C | 83% | 1010.6 hPa | 0 mm | - | - | - |
| 1778185425 | 12.78° C | 82% | 1010.4 hPa | 0 mm | - | - | - |
* Rain latest hour (hover to see other rain measurements)
** Current wind speed in m/s (hover to see current wind gust speed)